TIANWANG 1B (TW-1B)
1 40927U 15051C   19040.41006850  .00007903  00000-0  13493-3 0  9994
2 40927  97.1581  86.4772 0009750 131.7185 354.7953 15.51536567189958
TIANWANG 1A (TW-1A)
1 40928U 15051D   19040.48201551  .00002636  00000-0  68099-4 0  9998
2 40928  97.1608  74.6035 0011202 173.0700 296.8734 15.39953895189289
LAPAN A2
1 40931U 15052B   19040.00335460  .00000655  00000-0  21776-5 0  9999
2 40931   5.9977 261.3957 0013152 118.0029 242.1617 14.76596899182066
LQSAT
1 40958U 15057A   19040.50369052  .00000011  00000-0  94087-5 0  9993
2 40958  97.9148 113.0935 0017053 298.7794  61.1703 14.73066216179786
CHUBUSAT 2
1 41338U 16012B   19039.94028399 +.00000280 +00000-0 +15007-4 0  9992
2 41338 031.0022 249.3214 0014028 258.2391 101.6671 15.00091716163416
CHUBUSAT 3
1 41339U 16012C   19040.19124962  .00000316  00000-0  17819-4 0  9998
2 41339  31.0100 245.9946 0013773 268.4798  91.4248 15.00271762163448
OUFTI-1
1 41458U 16025C   19040.52326323  .00000893  00000-0  49450-4 0  9992
2 41458  98.1109 120.8155 0169372  71.4473 290.5065 15.05398004153144
E-STAR-2
1 41459U 16025D   19040.44397234  .00000752  00000-0  42599-4 0  9994
2 41459  98.1097 120.4653 0170373  72.5697 289.4079 15.05065881153105
AAUSAT 4
1 41460U 16025E   19040.24129341  .00001327  00000-0  70701-4 0  9991
2 41460  98.1054 121.1921 0160646  67.2521 294.5601 15.06783180153170
NUSAT 1
1 41557U 16033B   19040.49431889  .00001217  00000-0  48798-4 0  9996
2 41557  97.4237 128.7600 0014926  39.9738 320.2597 15.26861625150377
BEESAT 4
1 41619U 16040W   19039.74816686  .00001212  00000-0  54798-4 0  9993
2 41619  97.3854 104.3026 0012997 117.1774 243.0789 15.22756027134087
PRATHAM
1 41783U 16059A   19040.19747133  .00000054  00000-0  19643-4 0  9999
2 41783  98.0864 102.5199 0034795  72.0887 288.4104 14.62971870126615
ALSAT 1N
1 41789U 16059G   19040.43293788  .00000070  00000-0  22300-4 0  9996
2 41789  98.0884 104.4683 0029623  61.8810 298.5384 14.64214939126731
NAYIF 1
1 42017U 17008BX  19040.13360419  .00001354  00000-0  56944-4 0  9996
2 42017  97.4196 108.4886 0004667 263.7828  96.2879 15.25126262110179
LILACSAT-1
1 42725U 98067ME  19040.54306727  .00112706  15907-4  34222-3 0  9997
2 42725  51.6302 212.5790 0000474 359.0963 107.2782 15.91930618 97999
MAX VALIER SAT
1 42778U 17036P   19039.86906488 +.00000772 +00000-0 +37056-4 0  9997
2 42778 097.3730 100.2866 0011391 326.3745 033.6767 15.21755857090497
